Wind_Speed
1 3 6 9 10 11 11 10 9 9 10 10 10 11 10 7 4 0 1 1 1 5 7 6 5 9 7 4 1 6 8 8 7 5 10 14 3 13 4 7 18 17 10 8 10
3 1 3 5 8 12 12 12 11 11 11 12 11 12 12 10 8 5 3 2 3 6 6 4 6 3 4 2 1 6 13 7 12 8 7 3 3 4 7 10 13 11 17 12 10
6 4 1 1 4 7 11 15 15 15 15 14 14 14 14 13 12 9 7 5 4 5 11 12 13 13 13 2 6 10 13 16 9 5 6 6 1 8 9 13 11 12 15 21 14
3 6 5 2 0 3 8 10 12 17 18 18 18 17 17 17 13 12 13 10 8 8 12 16 18 18 13 2 11 11 7 8 4 11 2 3 8 7 8 10 15 15 16 15 16
2 3 4 5 4 3 6 7 9 10 11 13 16 19 20 20 18 17 13 12 12 11 13 14 13 19 20 15 4 8 6 1 5 7 7 7 12 15 16 17 20 23 26 20 19
1 1 2 4 5 4 2 7 8 9 8 9 9 11 16 22 26 25 18 16 15 14 13 11 9 16 17 7 7 6 5 3 6 10 13 13 22 19 18 18 20 24 28 28 24
3 2 1 4 6 7 3 1 5 8 7 7 7 10 14 18 22 26 24 23 21 20 19 14 9 11 19 25 23 17 15 12 12 11 14 17 24 20 18 17 24 27 26 29 30
7 5 3 3 5 6 5 3 1 4 5 5 4 4 4 11 20 21 21 24 22 22 25 23 21 15 23 24 21 19 17 15 12 17 18 11 11 12 16 18 21 28 31 30 27
11 8 6 5 5 5 5 3 2 0 2 3 5 5 6 9 13 15 18 22 21 21 22 25 23 23 24 24 19 19 19 16 9 12 14 8 10 9 3 14 19 31 27 35 34
13 12 9 7 5 5 4 3 2 1 2 1 2 4 6 9 12 13 14 15 14 15 16 18 19 20 16 12 9 14 16 12 5 9 7 4 5 11 19 13 23 29 31 34 38
14 13 13 10 7 6 5 2 0 2 1 2 3 3 4 7 12 13 15 14 12 10 13 11 7 7 6 8 3 2 7 5 8 8 15 11 9 10 19 28 28 25 34 39 41
16 15 14 13 10 8 7 5 1 1 1 4 1 4 1 3 7 12 9 10 11 15 10 7 6 7 4 2 4 2 11 4 6 9 18 19 17 17 21 27 34 31 32 31 33
20 18 17 15 13 10 8 6 3 2 3 1 3 4 1 4 7 10 12 10 13 14 14 11 9 10 10 6 6 2 4 6 10 20 26 27 25 24 22 26 30 35 40 39 43
24 23 19 16 15 13 11 10 7 3 4 3 1 1 0 4 8 10 7 8 9 12 19 20 9 3 3 3 10 15 13 18 24 21 22 15 18 21 27 31 28 26 30 37 30
20 25 24 21 18 16 14 12 10 6 5 7 2 1 3 3 6 10 13 11 11 17 14 13 7 3 3 7 9 16 19 21 21 21 20 11 22 23 27 31 34 35 34 29 33
20 20 25 27 24 20 18 15 12 11 10 8 6 4 4 3 7 11 13 12 11 9 4 7 4 5 1 9 16 19 24 21 23 27 27 24 26 28 31 34 34 35 39 39 39
21 21 20 24 27 26 22 19 15 13 13 10 10 6 4 3 6 7 11 12 8 8 12 15 15 17 12 15 16 20 22 28 30 32 27 24 26 25 29 36 38 38 36 35 38
22 21 22 23 23 27 27 23 16 15 13 12 10 8 6 6 6 9 5 6 9 13 15 20 15 17 14 19 21 20 19 22 31 33 32 27 26 28 38 36 35 33 37 35 38
19 21 21 24 25 24 25 24 14 18 21 21 18 10 6 3 10 6 7 11 11 11 17 18 18 21 20 23 26 24 24 29 31 32 34 32 31 31 28 37 34 33 36 40 34
16 20 20 23 25 26 22 17 18 24 22 24 21 16 16 16 16 13 15 18 18 18 20 25 19 18 22 24 29 35 33 33 32 35 37 35 32 32 35 32 30 29 30 28 28
17 17 21 22 23 26 22 19 23 32 28 28 27 19 25 25 28 25 24 26 30 28 30 33 29 16 17 20 27 21 24 29 33 34 37 38 34 36 34 33 29 28 26 29 28
20 18 22 23 21 22 23 24 32 33 38 34 35 32 32 31 22 22 29 30 31 37 37 37 32 27 19 20 31 27 25 28 30 34 36 37 37 36 33 35 35 31 27 26 29
19 20 19 21 23 22 27 29 32 35 37 42 43 38 34 32 30 32 36 36 33 37 36 16 12 24 31 25 26 31 29 31 31 33 33 36 37 35 33 36 34 26 25 26 30
15 17 17 18 22 23 23 25 29 38 41 45 45 41 40 40 36 39 41 40 37 42 30 25 26 31 33 31 23 26 30 31 33 33 33 33 33 32 33 33 30 30 25 23 16
15 14 17 17 20 21 25 27 30 36 45 46 45 44 41 39 41 45 41 37 38 35 38 33 29 27 21 22 29 32 31 32 35 31 31 32 30 30 30 26 26 26 24 19 14
20 18 19 20 23 25 28 30 30 32 38 41 44 45 41 42 41 38 48 47 45 43 38 34 36 34 33 36 34 39 36 36 33 29 31 31 28 28 26 25 21 20 18 17 14
22 21 21 23 24 25 28 28 33 31 30 34 35 37 39 37 42 46 42 46 47 44 39 37 38 35 32 27 40 37 32 34 31 26 28 29 27 28 24 23 18 16 16 14 12
Wind_Direction
186 234 239 231 220 206 202 207 206 210 215 219 221 225 228 240 250 231 73 11 64 140 116 154 175 142 141 141 176 257 324 278 339 177 183 169 186 235 193 327 323 334 317 78 13
53 283 214 212 217 220 215 211 211 212 216 218 221 225 225 233 238 227 197 140 147 142 152 123 141 119 255 113 234 351 47 66 33 27 95 58 121 1 268 310 338 330 352 309 332
50 53 94 203 217 222 222 221 218 215 218 222 222 223 225 229 232 223 199 177 199 162 162 164 152 169 232 243 349 36 64 76 15 347 45 72 330 318 341 335 326 330 321 301 305
91 67 71 81 207 223 219 222 223 228 228 230 228 223 220 222 221 225 229 194 200 188 193 192 180 189 197 2 17 29 42 25 9 314 10 11 330 309 306 314 323 305 293 319 305
82 69 53 37 29 273 234 222 221 222 223 229 234 234 226 220 216 210 220 223 212 221 208 217 194 207 230 230 236 17 89 41 336 308 330 314 311 290 311 331 331 312 310 311 312
164 94 32 11 11 14 241 232 228 222 221 225 231 234 232 225 223 223 208 220 223 218 232 241 230 212 233 231 278 273 327 305 294 317 327 311 305 272 315 315 303 303 305 318 318
237 249 330 354 11 16 44 207 216 217 220 232 248 252 245 227 217 214 209 220 227 226 233 228 229 242 231 211 227 244 280 283 252 277 300 300 332 301 332 292 302 301 308 314 318
231 245 276 325 1 6 21 47 177 208 224 234 237 216 219 204 217 210 209 206 213 220 230 231 230 236 222 230 248 254 263 278 300 317 304 317 330 340 308 311 309 303 314 313 312
231 237 256 289 326 352 5 26 48 143 243 223 213 202 170 155 170 177 186 204 211 217 214 210 214 229 238 238 238 265 269 266 282 271 299 327 344 14 337 298 308 303 316 320 322
240 239 243 259 291 327 335 5 32 32 343 327 184 198 200 177 176 178 185 203 197 196 203 208 217 232 245 253 241 263 272 271 281 335 349 317 358 17 329 285 301 299 311 319 318
246 241 243 243 258 294 297 307 38 102 85 8 301 160 218 214 186 198 197 202 195 192 186 188 185 173 192 236 212 238 169 34 336 350 323 329 323 332 324 314 318 325 316 306 317
245 245 241 243 242 262 259 254 247 121 136 94 82 335 192 228 219 185 186 195 180 185 193 175 198 183 148 118 30 289 218 241 317 332 307 309 305 310 302 310 307 304 313 313 311
244 246 244 243 244 245 240 253 248 207 197 152 53 91 294 148 180 152 149 154 169 181 181 177 146 122 106 32 344 347 293 287 306 318 294 293 299 301 298 304 303 298 303 305 303
243 242 245 241 239 235 238 236 227 240 242 197 314 314 242 182 185 152 164 177 142 185 176 199 209 31 220 141 327 315 321 317 320 297 301 295 296 303 300 303 312 313 310 310 310
244 241 239 243 241 242 246 253 251 242 254 224 231 247 289 238 220 197 182 190 208 207 236 249 220 312 349 326 291 293 298 293 289 306 297 277 280 291 291 300 302 302 305 288 308
245 244 237 240 241 245 245 248 253 256 230 204 219 187 239 236 238 219 205 207 214 225 189 202 185 259 229 279 270 274 269 277 293 305 308 300 304 302 296 293 294 294 311 297 300
246 243 237 238 240 240 243 243 243 250 250 241 223 252 215 303 286 260 240 207 182 186 171 180 191 217 279 259 259 257 274 289 293 294 290 296 306 301 304 307 305 299 302 308 302
245 244 240 236 236 239 240 239 236 231 239 238 226 223 168 61 294 278 233 240 219 215 196 197 221 242 260 287 295 297 293 295 296 301 301 307 307 306 308 310 318 312 311 317 313
243 242 241 238 236 236 237 235 219 208 219 224 227 232 138 344 308 307 311 289 273 234 242 227 243 262 269 280 290 290 294 301 296 297 305 314 310 307 316 314 321 319 312 316 321
242 241 241 238 235 235 234 223 201 200 208 227 221 225 234 233 234 253 250 262 269 268 272 272 276 269 267 274 279 281 286 290 292 298 302 307 311 314 314 315 320 315 316 317 316
248 238 239 239 237 234 231 216 194 192 204 220 233 226 219 232 243 238 250 256 260 258 266 271 275 265 273 277 284 275 278 282 291 296 296 306 315 315 317 317 313 314 322 315 319
246 236 238 238 242 235 226 216 202 202 210 220 229 238 220 235 248 250 246 256 267 253 254 262 271 272 278 296 292 289 282 284 287 295 299 307 311 313 318 313 314 320 323 317 312
248 246 237 241 238 234 227 222 213 205 212 221 230 235 233 228 244 244 246 253 256 268 275 265 262 267 292 300 292 286 287 289 291 294 302 305 305 310 314 310 318 325 325 322 316
260 258 253 244 245 240 240 232 225 214 217 224 230 231 233 232 235 246 250 256 259 258 243 281 287 302 314 296 272 282 282 284 287 297 302 296 299 308 308 313 319 325 331 335 318
260 254 249 238 246 241 235 239 229 224 226 227 236 238 239 240 238 241 250 254 265 266 271 278 287 287 299 308 299 292 284 284 290 295 292 293 302 306 308 308 316 317 326 355 347
263 261 257 244 243 240 241 232 233 235 239 237 238 244 248 242 246 247 246 252 258 264 272 281 284 283 280 284 286 285 290 290 289 290 290 293 298 300 308 304 310 315 331 338 340
263 254 257 260 252 250 251 251 246 240 246 252 251 251 253 254 248 249 252 253 256 259 263 265 272 279 288 267 281 281 283 283 290 290 291 294 299 304 306 307 308 306 315 320 322
Height
5894 5894 5894 5895 5896 5898 5899 5901 5902 5904 5905 5907 5908 5910 5911 5912 5913 5912 5913 5914 5913 5911 5911 5910 5910 5910 5912 5913 5914 5915 5914 5915 5915 5914 5915 5913 5916 5914 5912 5913 5914 5917 5920 5916 5918
5893 5893 5893 5894 5894 5895 5897 5899 5900 5902 5903 5905 5906 5908 5909 5911 5911 5911 5912 5913 5912 5911 5913 5911 5911 5911 5910 5914 5915 5914 5915 5911 5917 5913 5914 5914 5916 5914 5911 5912 5913 5915 5917 5917 5915
5893 5892 5892 5892 5893 5893 5894 5895 5897 5899 5900 5902 5904 5905 5907 5907 5908 5909 5910 5912 5912 5911 5911 5912 5912 5912 5908 5914 5912 5911 5912 5909 5913 5915 5913 5913 5912 5909 5911 5914 5914 5913 5914 5915 5913
5894 5894 5893 5892 5892 5892 5892 5893 5894 5896 5897 5899 5901 5903 5905 5905 5909 5908 5909 5910 5911 5912 5911 5910 5909 5911 5909 5908 5909 5910 5911 5909 5909 5909 5910 5911 5910 5906 5906 5910 5907 5909 5913 5909 5906
5894 5894 5893 5892 5891 5890 5890 5891 5892 5893 5894 5895 5897 5899 5901 5903 5904 5905 5907 5908 5909 5909 5908 5908 5910 5911 5909 5911 5909 5908 5908 5906 5909 5910 5909 5909 5907 5903 5902 5902 5903 5906 5901 5903 5901
5893 5893 5893 5892 5891 5889 5889 5889 5890 5891 5892 5893 5894 5895 5895 5897 5898 5900 5903 5905 5907 5906 5906 5909 5911 5911 5912 5909 5904 5907 5906 5906 5909 5909 5911 5908 5907 5904 5902 5898 5904 5901 5898 5895 5896
5893 5893 5893 5892 5891 5889 5888 5888 5888 5889 5890 5890 5891 5890 5890 5892 5892 5894 5899 5901 5904 5904 5904 5908 5910 5911 5909 5906 5904 5906 5904 5905 5908 5909 5907 5905 5904 5903 5900 5900 5901 5898 5895 5892 5892
5892 5892 5892 5891 5890 5889 5888 5887 5887 5887 5888 5888 5888 5887 5886 5885 5887 5891 5895 5898 5899 5900 5901 5904 5905 5905 5903 5905 5906 5906 5906 5905 5906 5906 5904 5904 5903 5900 5899 5899 5897 5893 5891 5890 5893
5890 5891 5891 5891 5890 5889 5888 5887 5886 5886 5886 5886 5886 5886 5886 5886 5887 5888 5891 5894 5894 5895 5897 5897 5899 5901 5902 5903 5907 5906 5905 5906 5908 5906 5905 5906 5902 5901 5899 5898 5892 5886 5890 5885 5881
5887 5888 5889 5889 5889 5888 5888 5887 5886 5886 5886 5886 5885 5886 5886 5886 5887 5888 5890 5892 5892 5893 5895 5896 5897 5898 5901 5903 5905 5905 5903 5903 5904 5904 5902 5902 5900 5899 5894 5891 5891 5885 5882 5877 5874
5885 5886 5886 5887 5887 5887 5887 5886 5887 5886 5884 5886 5886 5883 5883 5884 5884 5887 5888 5889 5891 5893 5894 5895 5898 5900 5901 5901 5901 5902 5901 5901 5900 5899 5895 5895 5895 5894 5894 5888 5884 5882 5879 5876 5868
5882 5883 5884 5885 5886 5886 5885 5885 5885 5886 5885 5884 5884 5885 5882 5883 5884 5884 5886 5889 5890 5891 5893 5896 5898 5901 5901 5901 5901 5901 5899 5897 5896 5895 5893 5891 5889 5887 5889 5886 5882 5878 5875 5870 5868
5878 5880 5881 5882 5883 5884 5884 5884 5884 5884 5885 5884 5884 5884 5884 5884 5884 5884 5885 5886 5888 5889 5891 5895 5896 5895 5895 5897 5897 5897 5895 5894 5892 5891 5890 5888 5885 5885 5882 5880 5876 5872 5871 5865 5864
5872 5875 5877 5879 5881 5881 5881 5881 5882 5884 5884 5884 5884 5884 5884 5884 5885 5883 5885 5887 5887 5890 5890 5890 5890 5891 5893 5892 5894 5892 5893 5890 5887 5888 5886 5884 5882 5880 5876 5873 5871 5871 5870 5865 5861
5866 5869 5872 5874 5877 5878 5879 5880 5882 5883 5883 5884 5883 5883 5883 5884 5884 5884 5884 5885 5886 5888 5892 5890 5889 5889 5890 5891 5891 5889 5887 5887 5886 5885 5883 5883 5879 5875 5871 5869 5865 5865 5864 5859 5853
5861 5863 5866 5868 5871 5874 5875 5877 5879 5882 5881 5882 5881 5881 5882 5882 5881 5883 5883 5884 5884 5886 5887 5889 5888 5887 5886 5886 5886 5886 5885 5884 5883 5880 5879 5876 5875 5872 5869 5865 5861 5858 5857 5853 5846
5856 5858 5860 5862 5865 5867 5870 5873 5877 5877 5879 5881 5880 5880 5879 5880 5880 5881 5882 5881 5882 5884 5884 5886 5885 5883 5884 5883 5884 5882 5880 5878 5877 5875 5875 5873 5869 5865 5859 5856 5852 5850 5848 5846 5841
5850 5852 5854 5856 5858 5861 5864 5869 5873 5873 5874 5874 5873 5875 5877 5879 5879 5878 5878 5878 5879 5880 5881 5882 5883 5882 5880 5879 5879 5877 5876 5875 5870 5869 5867 5868 5864 5860 5854 5847 5843 5837 5836 5835 5831
5844 5846 5848 5850 5852 5855 5858 5864 5869 5869 5868 5870 5872 5872 5872 5874 5877 5877 5875 5874 5875 5878 5879 5880 5881 5878 5877 5877 5875 5874 5872 5870 5866 5862 5859 5859 5857 5854 5850 5842 5836 5831 5824 5821 5820
5838 5841 5842 5843 5846 5849 5853 5859 5863 5864 5865 5864 5866 5867 5867 5869 5869 5871 5871 5872 5872 5873 5874 5874 5875 5876 5876 5873 5871 5867 5867 5863 5860 5856 5853 5852 5851 5847 5842 5839 5834 5828 5822 5819 5815
5833 5835 5836 5837 5840 5844 5848 5853 5857 5860 5859 5860 5861 5862 5862 5866 5865 5865 5867 5869 5869 5869 5868 5868 5870 5874 5874 5872 5865 5867 5861 5857 5854 5853 5847 5844 5845 5841 5837 5831 5828 5825 5820 5812 5807
5827 5830 5830 5833 5836 5839 5842 5844 5847 5849 5850 5852 5855 5857 5857 5858 5858 5860 5861 5863 5863 5862 5863 5863 5865 5867 5869 5867 5860 5858 5857 5854 5850 5848 5844 5839 5836 5832 5829 5822 5819 5817 5815 5810 5803
5822 5824 5827 5828 5830 5832 5832 5836 5839 5843 5845 5844 5846 5849 5851 5852 5852 5853 5854 5856 5856 5855 5857 5859 5859 5861 5860 5860 5854 5851 5850 5846 5844 5842 5840 5834 5829 5827 5823 5816 5813 5812 5808 5804 5798
5819 5820 5822 5824 5823 5827 5829 5831 5834 5837 5836 5837 5837 5841 5843 5844 5847 5846 5846 5847 5850 5850 5849 5852 5853 5851 5849 5846 5848 5848 5845 5840 5838 5836 5833 5830 5825 5821 5816 5811 5806 5803 5802 5799 5793
5814 5815 5815 5816 5817 5819 5821 5821 5824 5826 5828 5830 5831 5833 5838 5841 5839 5837 5839 5840 5840 5843 5843 5843 5844 5843 5843 5841 5838 5837 5839 5837 5832 5831 5828 5823 5820 5815 5811 5808 5803 5798 5795 5793 5790
5809 5810 5809 5811 5811 5811 5811 5814 5816 5820 5821 5823 5825 5827 5828 5831 5833 5833 5834 5835 5836 5836 5835 5834 5835 5837 5838 5838 5832 5829 5832 5828 5826 5823 5819 5816 5815 5811 5807 5803 5801 5797 5793 5790 5787
5803 5805 5805 5805 5805 5805 5805 5808 5810 5815 5816 5817 5822 5823 5823 5825 5826 5825 5827 5827 5827 5828 5827 5828 5829 5829 5826 5829 5825 5825 5824 5820 5817 5815 5812 5809 5807 5804 5801 5799 5796 5794 5792 5788 5785